Tacoma, WA

7:48 AM PST on February 11, 2016 (GMT -0800)
McChord Air Force Base

Weather History for KTCM - September, 2014

Change the Weather History Date:

Saturday, September 20, 2014

  Actual Average Record
Temperature  
Mean Temperature 61 °F -  
Max Temperature 74 °F 68 °F 89 °F (1974)
Min Temperature 48 °F 44 °F 37 °F (1983)
Degree Days  
Heating Degree Days 4    
Growing Degree Days 11 (Base 50)    
Moisture  
Dew Point 54 °F    
Average Humidity 91    
Maximum Humidity 100    
Minimum Humidity 55    
Precipitation  
Precipitation 0.00 in - - ()
Sea Level Pressure  
Sea Level Pressure 30.07 in    
Wind  
Wind Speed 3 mph (ENE)    
Max Wind Speed 13 mph    
Max Gust Speed -    
Visibility 7 miles    
Events Fog    
Averages and records for this station are not official NWS values.
T = Trace of Precipitation, MM = Missing Value Source: NWS Daily Summary

Daily Weather History Graph

Daily Weather History Graph

Search for Another Location

Airport or City:

Trip Planner

Search our weather history database for the weather conditions in past years. The results will help you decide how hot, cold, wet, or windy it might be!

Date:

Astronomy

Sep. 20, 2014 Rise Set
Actual Time 6:54 AM PDT 7:11 PM PDT
Civil Twilight 6:23 AM PDT 7:41 PM PDT
Nautical Twilight 5:47 AM PDT 8:17 PM PDT
Astronomical Twilight 5:10 AM PDT 8:54 PM PDT
Moon 3:27 AM PDT (9/20) 5:26 PM PDT (9/20)
Length of Visible Light 13h 18m
Length of Day
12h 17m
Waning Crescent, 11% of the Moon is Illuminated
Sep 20
Waning Crescent
Sep 23
New
Oct 1
First Quarter
Oct 8
Full
Oct 15
Last Quarter

Hourly Weather History & Observations

Time (PDT) Temp. Dew Point Humidity Pressure Visibility Wind Dir Wind Speed Gust Speed Precip Events Conditions
12:58 AM 61.5 °F 56.3 °F 83% 30.11 in 10.0 mi NNE 5.8 mph - N/A   Clear
1:58 AM 54.7 °F 53.2 °F 95% 30.11 in 10.0 mi SSE 2.3 mph - N/A   Clear
2:28 AM 53.6 °F 51.8 °F 94% 30.10 in 2.5 mi SE 2.3 mph - N/A   Clear
2:33 AM 51.8 °F 51.8 °F 100% 30.10 in 2.0 mi SSE 2.3 mph - N/A   Clear
2:38 AM 51.8 °F 51.8 °F 100% 30.10 in 2.0 mi SSE 2.3 mph - N/A   Clear
2:43 AM 53.6 °F 53.6 °F 100% 30.10 in 3.0 mi SSE 2.3 mph - N/A   Clear
2:53 AM 53.6 °F 53.6 °F 100% 30.10 in 1.0 mi Calm Calm - N/A   Clear
2:58 AM 53.2 °F 53.1 °F 99% 30.11 in 1.0 mi Calm Calm - N/A   Clear
3:03 AM 53.6 °F 53.6 °F 100% 30.10 in 5.0 mi ESE 2.3 mph - N/A   Clear
3:08 AM 53.6 °F 51.8 °F 94% 30.10 in 2.5 mi SE 1.2 mph - N/A   Clear
3:13 AM 51.8 °F 51.8 °F 100% 30.10 in 4.0 mi Calm Calm - N/A   Clear
3:23 AM 51.8 °F 51.8 °F 100% 30.10 in 2.5 mi Calm Calm - N/A   Clear
3:28 AM 51.8 °F 51.8 °F 100% 30.10 in 2.5 mi Calm Calm - N/A   Clear
3:33 AM 51.8 °F 51.8 °F 100% 30.10 in 1.5 mi Calm Calm - N/A   Clear
3:38 AM 51.8 °F 51.8 °F 100% 30.10 in 2.0 mi ESE 1.2 mph - N/A   Clear
3:43 AM 51.8 °F 51.8 °F 100% 30.10 in 3.0 mi ESE 1.2 mph - N/A   Clear
3:53 AM 51.8 °F 51.8 °F 100% 30.10 in 2.0 mi East 2.3 mph - N/A   Clear
3:58 AM 52.7 °F 52.5 °F 99% 30.11 in 2.5 mi East 2.3 mph - N/A   Clear
4:03 AM 51.8 °F 51.8 °F 100% 30.09 in 9.0 mi ENE 2.3 mph - N/A   Clear
4:18 AM 51.8 °F 50.0 °F 94% 30.09 in 2.5 mi Calm Calm - N/A   Clear
4:23 AM 51.8 °F 50.0 °F 94% 30.09 in 2.0 mi Calm Calm - N/A   Clear
4:28 AM 51.8 °F 51.8 °F 100% 30.09 in 7.0 mi ENE 1.2 mph - N/A   Clear
4:58 AM 50.0 °F 49.6 °F 99% 30.10 in 10.0 mi ESE 1.2 mph - N/A   Clear
5:43 AM 51.8 °F 51.8 °F 100% 30.09 in 1.8 mi Calm Calm - N/A   Clear
5:48 AM 51.8 °F 51.8 °F 100% 30.09 in 1.5 mi ESE 2.3 mph - N/A   Clear
5:53 AM 51.8 °F 51.8 °F 100% 30.09 in 7.0 mi ESE 2.3 mph - N/A   Clear
5:58 AM 52.0 °F 51.8 °F 99% 30.10 in 10.0 mi East 2.3 mph - N/A   Clear
6:28 AM 48.2 °F 48.2 °F 100% 30.09 in 2.5 mi East 1.2 mph - N/A   Clear
6:33 AM 50.0 °F 50.0 °F 100% 30.09 in 1.5 mi East 1.2 mph - N/A   Clear
6:38 AM 50.0 °F 50.0 °F 100% 30.09 in 0.8 mi East 1.2 mph - N/A   Clear
6:43 AM 50.0 °F 50.0 °F 100% 30.09 in 0.5 mi East 2.3 mph - N/A Fog Fog
6:48 AM 50.0 °F 50.0 °F 100% 30.09 in 1.2 mi East 2.3 mph - N/A   Scattered Clouds
6:53 AM 50.0 °F 50.0 °F 100% 30.09 in 8.0 mi East 2.3 mph - N/A   Scattered Clouds
6:58 AM 50.0 °F 49.8 °F 99% 30.10 in 8.0 mi East 2.3 mph - N/A   Scattered Clouds
7:03 AM 50.0 °F 50.0 °F 100% 30.10 in 10.0 mi ESE 2.3 mph - N/A   Mostly Cloudy
7:08 AM 50.0 °F 50.0 °F 100% 30.10 in 10.0 mi ENE 1.2 mph - N/A   Mostly Cloudy
7:23 AM 50.0 °F 50.0 °F 100% 30.10 in 10.0 mi East 2.3 mph - N/A   Overcast
7:30 AM 51.8 °F 51.8 °F 100% 30.10 in 10.0 mi Calm Calm - N/A   Overcast
7:58 AM 56.8 °F 56.7 °F 99% 30.11 in 10.0 mi NE 5.8 mph - N/A   Overcast
8:03 AM 57.2 °F 57.2 °F 100% 30.10 in 10.0 mi NNE 5.8 mph - N/A   Overcast
8:23 AM 57.2 °F 57.2 °F 100% 30.10 in 7.0 mi North 8.1 mph - N/A   Overcast
8:58 AM 57.7 °F 57.4 °F 99% 30.11 in 5.0 mi NNE 5.8 mph - N/A   Overcast
9:58 AM 58.1 °F 57.9 °F 99% 30.11 in 9.0 mi NNE 8.1 mph - N/A   Overcast
10:48 AM 59.0 °F 57.2 °F 94% 30.09 in 10.0 mi North 11.5 mph - N/A   Overcast
10:58 AM 59.5 °F 57.6 °F 93% 30.10 in 10.0 mi North 9.2 mph - N/A   Overcast
11:13 AM 60.8 °F 57.2 °F 88% 30.09 in 10.0 mi North 8.1 mph - N/A   Overcast
11:28 AM 60.8 °F 57.2 °F 88% 30.08 in 10.0 mi North 9.2 mph - N/A   Overcast
11:48 AM 64.4 °F 57.2 °F 77% 30.08 in 10.0 mi NNE 10.4 mph - N/A   Overcast
11:53 AM 64.4 °F 57.2 °F 77% 30.08 in 10.0 mi NNE 8.1 mph - N/A   Mostly Cloudy
11:58 AM 63.3 °F 56.8 °F 79% 30.08 in 10.0 mi NNE 9.2 mph - N/A   Mostly Cloudy
12:03 PM 64.4 °F 57.2 °F 77% 30.07 in 10.0 mi Variable 3.5 mph - N/A   Mostly Cloudy
12:08 PM 64.4 °F 57.2 °F 77% 30.06 in 10.0 mi NNE 8.1 mph - N/A   Scattered Clouds
12:58 PM 68.4 °F 57.2 °F 67% 30.05 in 10.0 mi NNE 8.1 mph - N/A   Clear
1:58 PM 71.6 °F 57.0 °F 60% 30.02 in 10.0 mi NNE 9.2 mph - N/A   Clear
2:58 PM 72.5 °F 57.2 °F 59% 29.99 in 10.0 mi NNE 12.7 mph - N/A   Clear
3:58 PM 74.1 °F 57.2 °F 55% 29.97 in 10.0 mi NNE 9.2 mph - N/A   Clear
4:58 PM 73.8 °F 57.9 °F 58% 29.96 in 10.0 mi North 10.4 mph - N/A   Clear
5:58 PM 72.3 °F 57.7 °F 60% 29.94 in 10.0 mi NNE 8.1 mph - N/A   Clear
6:58 PM 69.6 °F 57.2 °F 65% 29.92 in 10.0 mi NNE 4.6 mph - N/A   Clear
7:58 PM 66.4 °F 56.7 °F 71% 29.91 in 10.0 mi NE 2.3 mph - N/A   Clear
8:58 PM 63.9 °F 56.1 °F 76% 29.91 in 10.0 mi NE 2.3 mph - N/A   Clear
9:58 PM 60.1 °F 55.0 °F 83% 29.90 in 10.0 mi NE 3.5 mph - N/A   Clear
10:58 PM 57.6 °F 55.0 °F 91% 29.90 in 10.0 mi NE 2.3 mph - N/A   Clear
11:58 PM 53.8 °F 52.5 °F 95% 29.90 in 10.0 mi Calm Calm - N/A   Clear